sat.trackr.live / text

‹ back to catalog

STARLINK-31526

NORAD 59016 · 2024-036U

PAYLOAD ACTIVE UNKNOWN

§ Identity

Operator
Country
US
Launch date
2024-02-23
Launch site
AFWTR
Launch vehicle
Mass (kg)
RCS (m²)

Purposes: comms

External: N2YO · Heavens-Above · Gunter

§ Orbital elements

Epoch: 2026-09-20T06:47:47.749056Z

Period
94.01 min
Inclination
53.1605°
Eccentricity
0.0001199
Mean motion
15.31724659 rev/d
Perigee alt
469.8 km
Apogee alt
471.5 km
Semi-major
6,848.8 km
B*
-1.3205e-4
RAAN
227.4193°
Arg perigee
104.4419°
Mean anomaly
255.6715°
Rev number
14,549

§ Raw data

STARLINK-315261 59016U 24036U   26263.28319154 -.00004464  00000+0 -13205-3 0  99912 59016  53.1605 227.4193 0001199 104.4419 255.6715 15.31724659145491

JSON: /api/v1/satellites/59016 · /tle

For live sub-satellite position, see the globe view (requires WebGL).

§ Visibility from observer

Set your observer location to see the next 7 days of passes ≥ 10°. The values pass through the URL so the page stays shareable.

No JS? Fill the form by hand. The geolocation button needs JavaScript.